Weather History for Sanford, NC

Change the Weather History Date:

Thursday, October 18, 2012

  Actual Average (KRDU) Record (KRDU)
Temperature  
Mean Temperature 60 °F 60 °F  
Max Temperature 78 °F 72 °F 86 °F (1938)
Min Temperature 41 °F 49 °F 29 °F (1977)
Degree Days  
Heating Degree Days 6 6  
Month to date heating degree days 71  
Since 1 July heating degree days 92  
Cooling Degree Days 0 1  
Month to date cooling degree days 40  
Year to date cooling degree days 1708  
Growing Degree Days 10 (Base 50)    
Moisture  
Dew Point 53 °F    
Average Humidity 84    
Maximum Humidity 100    
Minimum Humidity 54    
Precipitation  
Precipitation 0.00 in 0.10 in 1.33 in (1887)
Month to date precipitation 1.94  
Year to date precipitation 35.84  
Sea Level Pressure  
Sea Level Pressure 29.87 in    
Wind  
Wind Speed 1 mph (SSE)    
Max Wind Speed 12 mph    
Max Gust Speed 17 mph    
Visibility 9 miles    
Events      
T = Trace of Precipitation, MM = Missing Value Source: NWS Daily Summary

Daily Weather History Graph

Daily Weather History Graph

Search for Another Location

Airport:

Trip Planner

Search our weather history database for the weather conditions in past years. The results will help you decide how hot, cold, wet, or windy it might be!

Date:

Astronomy

Oct. 18, 2012 Rise Set
Actual Time 7:25 AM EDT 6:36 PM EDT
Civil Twilight 7:00 AM EDT 7:02 PM EDT
Nautical Twilight 6:30 AM EDT 7:31 PM EDT
Astronomical Twilight 6:00 AM EDT 8:01 PM EDT
Moon 10:58 AM EDT (10/18) 9:16 PM EDT (10/18)
Length of Visible Light 12h 02m
Length of Day
11h 10m
Waxing Crescent, 14% of the Moon is Illuminated
Oct 18
Waxing Crescent
Oct 21
First Quarter
Oct 29
Full
Nov 6
Last Quarter
Nov 13
New

Hourly Weather History & Observations

Time (EDT) Temp. Dew Point Humidity Pressure Visibility Wind Dir Wind Speed Gust Speed Precip Events Conditions
12:15 AM 44.6 °F 44.6 °F 100% 29.94 in 10.0 mi Calm Calm - N/A   Clear
12:35 AM 44.6 °F 42.8 °F 93% 29.95 in 10.0 mi Calm Calm - N/A   Clear
12:55 AM 44.6 °F 42.8 °F 93% 29.94 in 10.0 mi Calm Calm - N/A   Clear
1:15 AM 44.6 °F 42.8 °F 93% 29.93 in 10.0 mi Calm Calm - N/A   Clear
1:35 AM 44.6 °F 42.8 °F 93% 29.93 in 10.0 mi Calm Calm - N/A   Clear
1:55 AM 42.8 °F 41.0 °F 93% 29.93 in 7.0 mi Calm Calm - N/A   Clear
2:15 AM 41.0 °F 41.0 °F 100% 29.93 in 10.0 mi Calm Calm - N/A   Clear
2:35 AM 42.8 °F 41.0 °F 93% 29.93 in 7.0 mi Calm Calm - N/A   Clear
2:55 AM 41.0 °F 41.0 °F 100% 29.93 in 4.0 mi Calm Calm - N/A   Clear
3:15 AM 41.0 °F 41.0 °F 100% 29.92 in 7.0 mi Calm Calm - N/A   Clear
3:35 AM 41.0 °F 41.0 °F 100% 29.92 in 7.0 mi Calm Calm - N/A   Clear
3:55 AM 41.0 °F 39.2 °F 93% 29.92 in 10.0 mi Calm Calm - N/A   Clear
4:15 AM 41.0 °F 39.2 °F 93% 29.92 in 7.0 mi Calm Calm - N/A   Clear
4:35 AM 41.0 °F 39.2 °F 93% 29.92 in 10.0 mi Calm Calm - N/A   Scattered Clouds
4:55 AM 41.0 °F 41.0 °F 100% 29.92 in 7.0 mi Calm Calm - N/A   Scattered Clouds
5:15 AM 41.0 °F 41.0 °F 100% 29.92 in 10.0 mi Calm Calm - N/A   Clear
5:35 AM 41.0 °F 39.2 °F 93% 29.93 in 7.0 mi Calm Calm - N/A   Clear
5:55 AM 41.0 °F 39.2 °F 93% 29.93 in 10.0 mi Calm Calm - N/A   Clear
6:15 AM 41.0 °F 39.2 °F 93% 29.93 in 7.0 mi Calm Calm - N/A   Clear
6:35 AM 41.0 °F 41.0 °F 100% 29.93 in 7.0 mi Calm Calm - N/A   Scattered Clouds
6:55 AM 41.0 °F 41.0 °F 100% 29.93 in 7.0 mi Calm Calm - N/A   Scattered Clouds
7:15 AM 41.0 °F 41.0 °F 100% 29.93 in 10.0 mi Calm Calm - N/A   Scattered Clouds
7:35 AM 42.8 °F 42.8 °F 100% 29.93 in 10.0 mi Calm Calm - N/A   Mostly Cloudy
7:55 AM 42.8 °F 42.8 °F 100% 29.92 in 10.0 mi Calm Calm - N/A   Scattered Clouds
8:15 AM 42.8 °F 42.8 °F 100% 29.91 in 10.0 mi Calm Calm - N/A   Clear
8:35 AM 46.4 °F 44.6 °F 93% 29.91 in 7.0 mi Calm Calm - N/A   Scattered Clouds
8:55 AM 50.0 °F 50.0 °F 100% 29.92 in 7.0 mi Calm Calm - N/A   Clear
9:15 AM 53.6 °F 51.8 °F 94% 29.93 in 10.0 mi Calm Calm - N/A   Scattered Clouds
9:35 AM 53.6 °F 51.8 °F 94% 29.93 in 10.0 mi Calm Calm - N/A   Overcast
9:55 AM 55.4 °F 51.8 °F 88% 29.94 in 10.0 mi Calm Calm - N/A   Overcast
10:15 AM 57.2 °F 53.6 °F 88% 29.93 in 10.0 mi Calm Calm - N/A   Mostly Cloudy
10:35 AM 59.0 °F 53.6 °F 82% 29.92 in 10.0 mi Calm Calm - N/A   Overcast
10:55 AM 62.6 °F 55.4 °F 77% 29.91 in 10.0 mi ESE 3.5 mph - N/A   Mostly Cloudy
11:15 AM 66.2 °F 55.4 °F 68% 29.90 in 10.0 mi SE 3.5 mph - N/A   Scattered Clouds
11:35 AM 69.8 °F 57.2 °F 64% 29.89 in 10.0 mi ESE 3.5 mph - N/A   Scattered Clouds
11:55 AM 68.0 °F 57.2 °F 68% 29.88 in 10.0 mi SSE 4.6 mph - N/A   Overcast
12:15 PM 69.8 °F 57.2 °F 64% 29.88 in 10.0 mi SE 4.6 mph - N/A   Overcast
12:35 PM 69.8 °F 59.0 °F 68% 29.87 in 10.0 mi ESE 4.6 mph - N/A   Overcast
12:55 PM 69.8 °F 59.0 °F 68% 29.86 in 10.0 mi Calm Calm - N/A   Overcast
1:15 PM 71.6 °F 59.0 °F 64% 29.85 in 10.0 mi Calm Calm - N/A   Overcast
1:35 PM 73.4 °F 60.8 °F 65% 29.83 in 10.0 mi NE 4.6 mph - N/A   Scattered Clouds
1:55 PM 75.2 °F 60.8 °F 61% 29.83 in 10.0 mi SSE 3.5 mph - N/A   Mostly Cloudy
2:15 PM 77.0 °F 59.0 °F 54% 29.83 in 10.0 mi SSE 9.2 mph - N/A   Mostly Cloudy
2:55 PM 77.0 °F 59.0 °F 54% 29.81 in 10.0 mi South 11.5 mph 17.3 mph N/A   Scattered Clouds
3:15 PM 77.0 °F 60.8 °F 57% 29.81 in 10.0 mi South 9.2 mph - N/A   Overcast
3:35 PM 77.0 °F 60.8 °F 57% 29.80 in 10.0 mi South 5.8 mph - N/A   Mostly Cloudy
3:55 PM 77.0 °F 60.8 °F 57% 29.79 in 10.0 mi SSE 6.9 mph - N/A   Mostly Cloudy
4:15 PM 78.8 °F 60.8 °F 54% 29.79 in 10.0 mi SSE 10.4 mph - N/A   Mostly Cloudy
4:35 PM 75.2 °F 60.8 °F 61% 29.79 in 10.0 mi SE 5.8 mph - N/A   Scattered Clouds
4:55 PM 75.2 °F 60.8 °F 61% 29.79 in 10.0 mi SE 5.8 mph - N/A   Mostly Cloudy
5:15 PM 75.2 °F 62.6 °F 65% 29.79 in 10.0 mi SE 3.5 mph - N/A   Mostly Cloudy
5:35 PM 73.4 °F 62.6 °F 69% 29.79 in 10.0 mi SSE 3.5 mph - N/A   Overcast
5:55 PM 73.4 °F 62.6 °F 69% 29.79 in 10.0 mi SE 3.5 mph - N/A   Mostly Cloudy
6:15 PM 73.4 °F 64.4 °F 73% 29.79 in 10.0 mi SSE 3.5 mph - N/A   Overcast
6:35 PM 71.6 °F 64.4 °F 78% 29.79 in 10.0 mi Calm Calm - N/A   Mostly Cloudy
6:55 PM 69.8 °F 64.4 °F 83% 29.80 in 10.0 mi Calm Calm - N/A   Mostly Cloudy
7:15 PM 69.8 °F 64.4 °F 83% 29.80 in 10.0 mi Calm Calm - N/A   Mostly Cloudy
7:35 PM 68.0 °F 64.4 °F 88% 29.81 in 10.0 mi Calm Calm - N/A   Scattered Clouds
7:55 PM 68.0 °F 64.4 °F 88% 29.81 in 10.0 mi Calm Calm - N/A   Scattered Clouds
8:15 PM 68.0 °F 64.4 °F 88% 29.82 in 10.0 mi Calm Calm - N/A   Scattered Clouds
8:35 PM 66.2 °F 62.6 °F 88% 29.81 in 10.0 mi Calm Calm - N/A   Clear
8:55 PM 62.6 °F 62.6 °F 100% 29.80 in 4.0 mi Calm Calm - N/A   Clear
9:15 PM 62.6 °F 62.6 °F 100% 29.80 in 10.0 mi Calm Calm - N/A   Clear
9:35 PM 64.4 °F 62.6 °F 94% 29.80 in 10.0 mi SSE 4.6 mph - N/A   Clear
9:55 PM 64.4 °F 64.4 °F 100% 29.80 in 10.0 mi South 4.6 mph - N/A   Clear
10:15 PM 66.2 °F 62.6 °F 88% 29.80 in 10.0 mi SSE 3.5 mph - N/A   Clear
10:35 PM 66.2 °F 62.6 °F 88% 29.80 in 10.0 mi South 4.6 mph - N/A   Clear
10:55 PM 64.4 °F 62.6 °F 94% 29.80 in 10.0 mi SSE 3.5 mph - N/A   Clear
11:35 PM 62.6 °F 62.6 °F 100% 29.80 in 7.0 mi Calm Calm - N/A   Clear
11:55 PM 62.6 °F 60.8 °F 94% 29.79 in 10.0 mi Calm Calm - N/A   Clear